Dewpoint
54 53 52 52 51 51 49 47 47 46 46 46 46 46 46 46 47 45 45 45 45 44 45 44 44 43 44 44 43 43 45 46 46 44 44 44 43 43 42 41 40 40
53 53 53 51 51 50 48 47 46 46 46 46 46 46 47 46 46 44 44 43 44 44 44 45 45 44 43 43 43 43 42 43 44 47 43 42 42 42 41 40 40 40
51 51 50 50 49 48 47 47 46 46 45 46 47 47 47 47 46 45 44 43 42 42 43 43 43 44 44 43 43 42 42 42 42 42 44 42 41 41 40 40 40 39
51 50 50 49 48 47 47 47 47 47 47 46 46 47 46 45 42 42 42 45 41 40 40 41 41 42 42 43 43 43 42 42 42 42 41 42 42 40 40 40 40 38
50 50 49 49 48 48 47 46 46 46 46 46 46 45 44 41 40 40 39 39 39 39 39 39 40 41 42 42 43 43 44 42 42 41 41 41 41 40 40 39 38 38
50 50 50 48 47 47 46 46 46 45 45 43 43 43 41 40 39 38 38 37 38 38 39 39 39 40 41 41 42 43 43 42 42 41 40 40 40 40 40 38 37 37
50 49 48 47 46 45 45 45 46 45 43 43 42 41 40 39 38 38 37 37 37 39 38 39 39 39 40 41 41 42 43 42 41 41 40 39 40 39 39 38 39 38
48 48 47 46 46 45 45 45 44 45 45 44 42 41 39 38 38 38 37 37 37 37 38 38 38 39 39 39 40 41 42 43 41 40 38 38 39 38 39 39 38 37
46 46 46 45 45 44 44 44 45 44 43 41 40 40 40 38 38 37 37 36 36 36 36 37 37 38 38 38 39 39 40 41 41 40 38 38 38 38 38 38 37 38
45 45 44 44 43 43 43 43 43 44 44 41 40 40 39 38 37 36 36 36 35 35 35 36 36 36 37 37 38 38 40 41 41 40 39 37 38 38 38 38 37 36
44 44 43 43 43 43 43 43 43 43 43 41 40 39 38 37 38 37 36 35 36 35 35 35 35 36 36 36 37 38 39 40 41 40 39 38 38 39 42 38 39 36
44 43 43 43 43 43 43 43 43 43 42 41 40 39 38 37 36 36 36 34 35 35 35 35 35 35 35 36 36 37 38 39 40 40 40 38 38 38 38 39 37 37
43 43 43 43 43 42 43 42 42 41 41 41 41 39 37 36 35 35 36 35 35 35 35 35 36 36 35 35 36 36 37 38 39 40 39 39 37 38 37 37 37 37
43 43 42 42 42 43 42 42 42 42 41 41 40 39 37 36 35 35 36 35 35 36 36 38 35 35 35 35 35 36 37 37 38 40 40 38 38 37 37 36 37 38
43 43 43 44 42 42 42 42 42 42 42 41 40 40 39 37 35 34 34 34 34 34 34 35 36 36 36 36 35 36 36 37 38 39 39 37 37 36 36 36 37 38
43 43 42 41 41 41 41 42 42 42 41 39 38 38 37 37 36 36 35 34 34 33 34 34 35 36 38 38 39 37 36 37 38 39 40 37 38 37 35 36 36 38
42 41 41 41 41 41 41 42 42 41 38 37 36 35 35 36 34 34 34 34 33 32 32 34 35 36 37 37 37 40 39 38 37 39 39 36 37 36 35 36 36 36
41 41 40 40 41 41 41 41 41 39 37 36 34 33 34 33 33 33 33 33 33 33 33 33 34 37 36 37 37 38 40 39 37 37 37 36 35 35 36 36 35 35
41 40 40 40 41 41 41 41 40 39 38 35 32 33 32 32 32 32 32 33 32 31 32 33 33 37 36 37 37 37 38 37 35 36 36 35 35 36 36 35 36 36
40 40 40 40 41 41 41 41 41 40 39 38 36 34 31 31 32 32 32 32 31 32 32 32 33 36 36 36 37 36 36 37 34 35 34 34 35 36 36 34 34 34
40 40 40 40 40 40 40 40 40 40 40 39 36 33 32 32 33 33 34 35 32 31 31 32 33 36 35 36 36 37 37 36 34 34 34 34 34 35 36 35 34 35
39 39 40 40 40 40 40 40 39 39 39 39 38 37 36 36 35 36 36 34 33 31 30 29 31 35 35 35 36 36 37 36 33 33 33 33 34 34 35 35 35 35
39 39 39 39 39 39 39 38 38 38 39 39 38 37 37 37 37 37 37 35 34 32 30 29 30 33 34 35 35 36 36 34 32 32 32 33 33 33 34 35 35 36
38 38 38 38 38 38 38 38 38 38 38 38 36 35 36 36 37 37 37 37 35 32 30 30 29 32 34 35 35 36 36 32 33 32 31 32 32 33 34 33 34 40
38 38 38 37 37 38 38 37 37 37 38 36 35 34 35 36 38 37 37 38 37 34 38 32 31 33 34 34 35 35 35 32 33 31 31 30 31 33 33 33 32 36
38 38 37 37 37 37 37 37 38 37 36 34 34 34 34 35 36 35 36 36 38 37 38 34 32 32 35 34 35 35 36 34 33 31 32 30 31 34 33 31 32 32